Location: Kershaw
(34.5481°N, 80.5823°W)
Time: 15:25:58
(UTC+00:00)

Vanguard 1 Rocket - Pass Details

Date: 03 October 2022
Orbit: 650 x 4225 km, 34.3° (Epoch: 08 December)

Event Time Altitude Azimuth Distance (km) Brightness Sun altitude
Rises 02:46:06 0° 262° (W) 7,747 12.6 -44.5°
Reaches altitude 10° 02:52:04 10° 263° (W) 6,258 12.0 -45.5°
Enters shadow 03:06:26 60° 263° (W) 2,451 9.4 -47.8°
Maximum altitude 03:09:35 88° 179° (S) 1,951 - -48.3°
Drops below altitude 10° 03:18:04 10° 88° (E) 3,269 - -49.6°
Sets 03:20:13 0° 88° (E) 3,965 - -50.0°
